Regional Weather Roundup
Issued by NWS Cleveland, OH

Home | Current Version | Previous Version | Text Only | Print | Product List | Glossary Off
Versions: 1 2 3 4 5 6 7 8 9 10 11 12 13 14 15 16 17 18 19 20 21 22 23 24 25 26 27 28 29 30 31 32 33 34 35 36 37 38 39 40 41 42 43 44 45 46 47 48 49 50

000
ASUS41 KCLE 030502
RWRCLE
OHIO REGIONAL WEATHER ROUNDUP
NATIONAL WEATHER SERVICE CLEVELAND, OH
100 AM EDT FRI JUL 03 2015

NOTE: "FAIR" INDICATES FEW OR NO CLOUDS BELOW 12,000 FEET WITH NO
SIGNIFICANT WEATHER AND/OR OBSTRUCTIONS TO VISIBILITY.

OHZ001>008-015>018-024>027-034-035-043-044-030600-
   NORTHWEST OHIO

CITY           SKY/WX    TMP DP  RH WIND       PRES   REMARKS
DEFIANCE       MOCLDY    61  55  81 E5        29.99S
FINDLAY        CLOUDY    63  55  75 NE8       29.98S
TOLEDO EXPRESS PTCLDY    57  55  93 CALM      30.00R
TOLEDO EXEC    CLEAR     62  56  80 NE3       30.00S
LIMA           PTCLDY    60  54  80 E7        29.97F
$$

OHZ009>014-019>023-028>033-038-089-030600-
   NORTHEAST OHIO

CITY           SKY/WX    TMP DP  RH WIND       PRES   REMARKS
CLE-HOPKINS    PTCLDY    61  53  75 NE6       30.02R
CLE-LAKEFRONT  CLEAR     64  53  67 E3        29.99S
CUY CO. ARPT   NOT AVBL
LORAIN-ELYRIA  CLEAR     59  57  93 NE5       30.01R
ASHTABULA      CLEAR     53  52  96 CALM      30.01R
AKRON-CANTON   PTCLDY    59  53  80 NE7       30.00R
WOOSTER        PTCLDY    57  54  89 N3        30.00S
MANSFIELD      PTCLDY    59  54  83 N6        29.99F
YOUNGSTOWN     CLEAR     55  51  86 CALM      30.00R
$$

OHZ042-051>053-060>062-070>072-077>081-030600-
  SOUTHWEST OHIO

CITY           SKY/WX    TMP DP  RH WIND       PRES   REMARKS
CINC-COVINGTON CLOUDY    70  67  90 NE8       29.90F FOG
CINC-LUNKEN    CLOUDY    69  66  90 NE5       29.90F
HAMILTON       CLOUDY    70  64  81 E8        29.92S
DAYTON         MOCLDY    65  57  75 NE10      29.95F
WRIGHT-PAT AFB PTCLDY    65  57  75 NE10      29.93F
DAYTON GENERAL CLOUDY    67  60  78 E12       29.93S
WILMINGTON     CLOUDY    66  62  87 NE7       29.93F
$$

OHZ036-037-039>041-045>050-054>059-063>069-073>076-082>088-030600-
  CENTRAL AND SOUTHEAST OHIO

CITY           SKY/WX    TMP DP  RH WIND       PRES   REMARKS
COLUMBUS       CLEAR     64  56  75 NE7       29.95S
OSU AIRPORT    PTCLDY    62  56  80 NE8       29.96S
BOLTON FIELD   NOT AVBL
RICKENBACK AFB NOT AVBL
NEWARK         PTCLDY    64  57  78 NE3       29.96S
MARION         MOCLDY    59  54  83 NE5       29.98F
LANCASTER      PTCLDY    65  60  84 NE7       29.95S
ZANESVILLE     NOT AVBL
NEW PHILLY     CLEAR     59  56  89 CALM      29.99R
$$


USA.gov is the U.S. government's official web portal to all federal, state and local government web resources and services.